Location: Recife
(8.0585°S, 34.8848°W)
Time: 10:29:26
(UTC-03:00)

Courier 1B Rocket - Pass Details

Date: 17 April 2026
Orbit: 920 x 1201 km, 28.2° (Epoch: 13 May)

Event Time Altitude Azimuth Distance (km) Brightness Sun altitude
Rises 14:06:57 0° 248° (WSW) 4,062 8.7 44.2°
Reaches altitude 10° 14:09:49 10° 252° (WSW) 3,116 8.3 43.6°
Maximum altitude 14:17:29 59° 329° (NNW) 1,358 7.1 41.8°
Drops below altitude 10° 14:25:06 10° 47° (NE) 3,089 7.5 40.1°
Sets 14:27:56 0° 51° (NE) 4,026 8.0 39.4°
